Weather History for KFNT - March, 2014

Change the Weather History Date:

Tuesday, March 11, 2014

  Actual Average Record
Temperature  
Mean Temperature 41 °F 32 °F  
Max Temperature 48 °F 41 °F 68 °F (1973)
Min Temperature 33 °F 23 °F -7 °F (1960)
Degree Days  
Heating Degree Days 24 33  
Month to date heating degree days 490 381  
Since 1 July heating degree days 6011 5469  
Cooling Degree Days 0 0  
Month to date cooling degree days 0 0  
Year to date cooling degree days 0 0  
Moisture  
Dew Point 33 °F    
Average Humidity 74    
Maximum Humidity 89    
Minimum Humidity 58    
Precipitation  
Precipitation T in 0.05 in 0.64 in (1957)
Month to date precipitation 0.35 0.61  
Year to date precipitation 4.36 3.72  
Snow  
Snow 0.00 in 0.20 in 3.70 in (1950)
Month to date snowfall 4.1 3.0  
Since 1 July snowfall 77.3 41.6  
Snow Depth 6.00 in    
Sea Level Pressure  
Sea Level Pressure 29.70 in    
Wind  
Wind Speed 6 mph (West)    
Max Wind Speed 18 mph    
Max Gust Speed 23 mph    
Visibility 8 miles    
Events Rain    
T = Trace of Precipitation, MM = Missing Value Source: NWS Daily Summary

Daily Weather History Graph

Daily Weather History Graph

Search for Another Location

Airport or City:

Trip Planner

Search our weather history database for the weather conditions in past years. The results will help you decide how hot, cold, wet, or windy it might be!

Date:

Astronomy

Mar. 11, 2014 Rise Set
Actual Time 7:54 AM EDT 7:36 PM EDT
Civil Twilight 7:25 AM EDT 8:04 PM EDT
Nautical Twilight 6:52 AM EDT 8:37 PM EDT
Astronomical Twilight 6:19 AM EDT 9:11 PM EDT
Moon 3:06 PM EDT (3/11) 4:52 AM EDT (3/11)
Length of Visible Light 12h 39m
Length of Day
11h 42m
Waxing Gibbous, 78% of the Moon is Illuminated
Mar 11
Waxing Gibbous
Mar 16
Full
Mar 23
Last Quarter
Mar 30
New
Apr 7
First Quarter

Hourly Weather History & Observations

Time (EDT) Temp. Windchill Dew Point Humidity Pressure Visibility Wind Dir Wind Speed Gust Speed Precip Events Conditions
12:53 AM 39.9 °F 35.1 °F 32.0 °F 73% 29.63 in 9.0 mi SW 6.9 mph - N/A   Clear
1:53 AM 39.9 °F 35.8 °F 32.0 °F 73% 29.64 in 8.0 mi SW 5.8 mph - N/A   Clear
2:53 AM 39.9 °F 36.7 °F 32.0 °F 73% 29.65 in 8.0 mi SW 4.6 mph - N/A   Clear
3:53 AM 37.9 °F - 32.0 °F 79% 29.65 in 7.0 mi Calm Calm - N/A   Scattered Clouds
4:53 AM 39.9 °F 37.8 °F 33.1 °F 77% 29.64 in 7.0 mi SW 3.5 mph - N/A   Partly Cloudy
5:53 AM 36.0 °F - 30.9 °F 82% 29.65 in 6.0 mi Calm Calm - N/A   Haze
6:53 AM 35.1 °F - 30.9 °F 85% 29.66 in 5.0 mi Calm Calm - N/A   Clear
7:53 AM 36.0 °F - 32.0 °F 86% 29.67 in 4.0 mi Calm Calm - N/A   Scattered Clouds
8:53 AM 34.0 °F 29.8 °F 30.0 °F 85% 29.67 in 10.0 mi SSW 4.6 mph - N/A   Partly Cloudy
9:53 AM 39.0 °F 36.8 °F 33.1 °F 79% 29.69 in 5.0 mi WNW 3.5 mph - N/A   Haze
10:53 AM 41.0 °F 37.1 °F 33.1 °F 73% 29.70 in 7.0 mi West 5.8 mph - N/A   Overcast
11:53 AM 44.1 °F 40.1 °F 33.1 °F 65% 29.70 in 7.0 mi SSW 6.9 mph - N/A   Overcast
12:53 PM 46.9 °F - 34.0 °F 61% 29.70 in 8.0 mi WNW 6.9 mph - N/A   Overcast
1:53 PM 46.9 °F - 32.0 °F 56% 29.70 in 10.0 mi NW 5.8 mph - N/A   Overcast
2:53 PM 44.1 °F 39.5 °F 32.0 °F 63% 29.70 in 8.0 mi WNW 8.1 mph - N/A   Overcast
3:53 PM 44.1 °F 40.1 °F 34.0 °F 68% 29.70 in 8.0 mi Variable 6.9 mph - 0.00 in Rain Light Rain
4:53 PM 46.0 °F 43.1 °F 33.1 °F 61% 29.69 in 10.0 mi WSW 5.8 mph - 0.00 in   Overcast
5:53 PM 45.0 °F 41.8 °F 32.0 °F 60% 29.69 in 10.0 mi WSW 5.8 mph - N/A   Overcast
6:53 PM 43.0 °F 40.3 °F 32.0 °F 65% 29.72 in 10.0 mi West 4.6 mph - N/A   Overcast
7:53 PM 41.0 °F 34.7 °F 32.0 °F 70% 29.75 in 10.0 mi West 10.4 mph - N/A   Overcast
8:53 PM 39.0 °F 34.0 °F 33.1 °F 79% 29.78 in 8.0 mi NW 6.9 mph - 0.00 in Rain Light Rain
9:53 PM 39.0 °F 35.7 °F 35.1 °F 86% 29.77 in 10.0 mi SSW 4.6 mph - 0.00 in Rain Light Rain
10:53 PM 37.9 °F - 36.0 °F 93% 29.75 in 7.0 mi Calm Calm - 0.00 in Rain Light Rain
11:07 PM 39.0 °F - 36.0 °F 89% 29.73 in 6.0 mi Calm Calm - 0.00 in Rain Light Rain
11:23 PM 37.9 °F 30.5 °F 35.1 °F 89% 29.74 in 4.0 mi ENE 11.5 mph - 0.00 in Rain Light Rain
11:31 PM 37.9 °F 29.6 °F 33.1 °F 83% 29.75 in 6.0 mi ENE 13.8 mph - 0.00 in Rain Light Rain
11:45 PM 37.0 °F 28.5 °F 32.0 °F 82% 29.75 in 8.0 mi ENE 13.8 mph - 0.00 in   Overcast
11:53 PM 36.0 °F 26.3 °F 32.0 °F 86% 29.77 in 8.0 mi ENE 16.1 mph - 0.00 in   Overcast